Torna al catalogo

COSMOS 1375 DEB

AttivoLEO
NORAD 17104·DEBRIS·🇷🇺 Russia

Lanciato Jun 6, 1982 da Plesetsk Cosmodrome

Loading…

Prossimi Passaggi (prossime 24 ore)

TLE

AggiornatoSource: Space-Track

Epoca: Sep 14, 2026, 08:16 UTC

1 17104U 82055AF  26257.34451149  .00000146  00000-0  23201-3 0  9998
2 17104  65.8331 290.9463 0045163 267.3760 104.9464 13.76041106 50411

Traccia COSMOS 1375 DEB in tempo reale con AllMySat

Download on the App Store